Home   Weather   Phnom Penh   Past weeks

Flag for Cambodia Past Weather in Phnom Penh, Cambodia — Yesterday and Last 2 Weeks

Now
81 °F

Passing clouds.


Feels Like: 86 °F
Forecast: 76 / 91 °F
Wind: 5 mph from Southeast

Location: Phnom-Penh / Pochentong

Current Time: Feb 22, 2017 at 2:23:18 am

Latest Report: Feb 22, 2017 at 1:30 am


Visibility: 6 mi

Pressure: 29.83 "Hg

Humidity: 84%

Dew Point: 75 °F

Location of Phnom PenhLocation

Past Weather in Phnom Penh — Graph

°F

Phnom Penh Temperature Yesterday

Maximum temperature yesterday: 93 °F (at 3:00 pm)
Minimum temperature yesterday: 77 °F (at 6:30 am)
Average temperature yesterday: 86 °F

High & Low Weather Summary for the Past Weeks

 TemperatureHumidityPressure
High95 °F (Feb 20, 1:30 pm)94% (Feb 7, 1:30 am)30.09 "Hg (Feb 7, 1:30 am)
Low72 °F (Feb 12, 6:00 am)31% (Feb 12, 2:30 pm)29.71 "Hg (Feb 20, 3:30 pm)
Average83 °F60%29.89 "Hg
* Reported Feb 7 1:00 am — Feb 22 1:00 am, Phnom Penh, Weather by CustomWeather, © 2017

Note: Actual official high and low records may vary slightly from our data, if they occured in-between our weather recording intervals... More about our weather records

Advertising

Phnom Penh Weather History for the Previous 24 Hours

Scroll right to see more
 ConditionsComfort  
Time TempWeatherWind HumidityBarometerVisibility
1:00 am
Wed, Feb 22
81 °FPassing clouds.6 mph84%29.83 "Hg6 mi
12:30 am81 °FPassing clouds.6 mph84%29.83 "Hg6 mi
12:00 am81 °FPassing clouds.5 mph84%29.86 "Hg6 mi
11:30 pm
Tue, Feb 21
81 °FPassing clouds.6 mph84%29.86 "Hg6 mi
11:00 pm82 °FPassing clouds.6 mph84%29.86 "Hg6 mi
10:00 pm84 °FPassing clouds.7 mph79%29.86 "Hg6 mi
9:30 pm84 °FPassing clouds.5 mph74%29.83 "Hg6 mi
9:00 pm84 °FPassing clouds.5 mph74%29.83 "Hg6 mi
8:30 pm86 °FPassing clouds.5 mph70%29.83 "Hg6 mi
8:00 pm86 °FPassing clouds.6 mph70%29.83 "Hg6 mi
7:30 pm86 °FPassing clouds.7 mph70%29.80 "Hg6 mi
7:00 pm86 °FPassing clouds.7 mph70%29.80 "Hg6 mi
6:30 pm88 °FPassing clouds.7 mph62%29.77 "HgN/A
6:00 pm88 °FPassing clouds.7 mph62%29.77 "HgN/A
5:30 pm90 °FPassing clouds.6 mph59%29.77 "HgN/A
5:00 pm91 °FPassing clouds.6 mph52%29.77 "HgN/A
4:30 pm91 °FPassing clouds.7 mph52%29.77 "HgN/A
4:00 pm91 °FScattered clouds.7 mph56%29.77 "HgN/A
3:30 pm91 °FScattered clouds.7 mph56%29.77 "HgN/A
3:00 pm93 °FScattered clouds.8 mph53%29.77 "HgN/A
2:30 pm91 °FScattered clouds.8 mph56%29.77 "HgN/A
2:00 pm91 °FScattered clouds.8 mph56%29.80 "HgN/A
1:30 pm90 °FScattered clouds.8 mph55%29.83 "HgN/A
1:00 pm90 °FScattered clouds.8 mph55%29.83 "HgN/A
12:30 pm90 °FScattered clouds.7 mph52%29.86 "HgN/A
12:00 pm91 °FScattered clouds.8 mph56%29.86 "HgN/A
11:30 am90 °FScattered clouds.6 mph59%29.89 "HgN/A
11:00 am88 °FScattered clouds.7 mph62%29.89 "HgN/A
10:30 am88 °FScattered clouds.8 mph62%29.92 "HgN/A
10:00 am86 °FScattered clouds.9 mph66%29.92 "HgN/A
9:30 am86 °FPassing clouds.8 mph70%29.92 "HgN/A
9:00 am84 °FPassing clouds.9 mph70%29.89 "HgN/A
8:30 am82 °FPassing clouds.9 mph74%29.89 "HgN/A
8:00 am81 °FSunny.9 mph79%29.86 "Hg10 mi
7:30 am81 °FClear.7 mph79%29.86 "Hg6 mi
7:00 am79 °FClear.5 mph84%29.86 "Hg6 mi
6:30 am77 °FPassing clouds.5 mph89%29.86 "Hg6 mi
2:30 am79 °FClear.6 mph84%29.80 "Hg10 mi
2:00 am79 °FClear.N/A84%29.80 "Hg10 mi
Weather by CustomWeather, © 2017

See weather overviewHow to use our weather pages